period_start,C,m1,H,J0,J1,J2,J3,J4,J5,JA,JB,JC,JD,JJ,JK,JN,#
2015-10-21 00:00:49,0.11,1.86,0.00,23.09,27.87,30.80,14.41,48.18,1001.11,2033.10,2898.96,2748.94,2989.42,600.40,587.15,22.18,0000 0000 0000 0000 000000
2015-10-21 00:05:50,0.04,1.86,0.00,23.08,27.87,30.77,14.35,48.07,1001.03,2033.09,2898.03,2748.09,2988.77,599.72,586.47,22.23,0000 0000 0000 0000 000000
2015-10-21 00:10:51,0.03,1.86,0.00,23.06,27.87,30.78,14.32,48.02,1001.02,2033.24,2897.51,2747.91,2988.05,599.91,586.62,22.28,0000 0000 0000 0000 000000
2015-10-21 00:15:53,0.08,1.87,0.00,23.02,27.87,30.80,14.36,48.18,1001.01,2033.24,2895.92,2747.02,2987.12,599.79,586.64,22.33,0000 0000 0000 0000 000000
2015-10-21 00:20:54,0.06,1.87,0.00,23.08,27.87,30.79,14.28,47.98,1000.99,2033.20,2895.05,2746.12,2986.28,599.88,586.66,22.38,0000 0000 0000 0000 000000
2015-10-21 00:25:55,0.06,1.87,0.00,23.13,27.87,30.79,14.31,48.03,1000.99,2033.12,2893.88,2745.42,2985.45,599.92,586.57,22.43,0000 0000 0000 0000 000000
2015-10-21 00:30:57,0.01,1.88,0.00,23.15,27.87,30.78,14.37,48.08,1000.99,2033.11,2893.01,2745.00,2984.99,600.33,586.81,22.48,0000 0000 0000 0000 000000
2015-10-21 00:35:58,0.01,1.88,0.00,23.20,27.89,30.77,14.34,48.02,1000.99,2033.10,2892.93,2744.84,2984.79,600.14,586.64,22.53,0000 0000 0000 0000 000000
2015-10-21 00:40:59,0.04,1.88,0.00,23.22,27.90,30.77,14.20,47.95,1000.99,2033.07,2892.61,2744.07,2984.04,599.71,586.16,22.58,0000 0000 0000 0000 000000
2015-10-21 00:46:00,0.01,1.88,0.00,23.23,27.90,30.77,14.33,48.01,1000.99,2033.08,2892.26,2744.00,2984.00,600.26,586.59,22.63,0000 0000 0000 0000 000000
2015-10-21 00:51:01,0.07,1.88,0.00,23.26,27.90,30.77,14.36,47.98,1000.97,2033.05,2891.30,2743.48,2983.39,599.87,586.21,22.68,0000 0000 0000 0000 000000
2015-10-21 00:56:02,0.02,1.88,0.00,23.29,27.90,30.75,14.29,47.92,1000.98,2033.06,2890.17,2742.97,2982.77,599.92,586.20,22.73,0000 0000 0000 0000 000000
2015-10-21 01:01:03,0.03,1.89,0.00,23.32,27.90,30.77,14.29,47.98,1000.99,2033.05,2889.99,2742.34,2982.05,599.85,586.10,22.78,0000 0000 0000 0000 000000
2015-10-21 01:06:05,0.01,1.89,0.00,23.35,27.91,30.77,14.39,48.02,1000.98,2033.08,2889.97,2742.08,2982.00,600.11,586.18,22.83,0000 0000 0000 0000 000000
2015-10-21 01:11:06,0.01,1.89,0.00,23.35,27.92,30.76,14.31,48.00,1000.93,2033.06,2889.73,2741.99,2981.91,600.10,586.17,22.88,0000 0000 0000 0000 000000
2015-10-21 01:16:08,0.04,1.89,0.00,23.39,27.92,30.76,14.27,47.93,1000.89,2033.06,2889.06,2741.55,2981.10,599.83,585.89,22.93,0000 0000 0000 0000 000000
2015-10-21 01:21:09,0.01,1.89,0.00,23.42,27.92,30.76,14.36,47.97,1000.85,2033.06,2889.00,2741.10,2980.99,600.21,585.97,22.98,0000 0000 0000 0000 000000
2015-10-21 01:26:11,-0.00,1.89,0.00,23.46,27.93,30.76,14.37,47.94,1000.69,2033.02,2888.99,2741.01,2980.94,600.06,585.77,23.03,0000 0000 0000 0000 000000
2015-10-21 01:31:12,0.02,1.89,0.00,23.49,27.94,30.77,14.26,47.92,1000.77,2033.01,2888.60,2740.98,2980.19,599.89,585.64,23.08,0000 0000 0000 0000 000000
2015-10-21 01:36:13,0.02,1.89,0.00,23.52,27.95,30.78,14.29,48.01,1000.77,2033.00,2888.04,2740.62,2980.00,600.12,585.77,23.13,0000 0000 0000 0000 000000
2015-10-21 01:41:15,0.02,1.89,0.00,23.55,27.95,30.77,14.39,48.06,1000.65,2033.00,2888.00,2740.14,2979.87,600.20,585.72,23.18,0000 0000 0000 0000 000000
2015-10-21 01:46:16,0.02,1.89,0.00,23.59,27.95,30.77,14.23,47.96,1000.67,2033.00,2887.95,2740.00,2979.12,600.01,585.44,23.23,0000 0000 0000 0000 000000
2015-10-21 01:51:18,0.01,1.89,0.00,23.62,27.95,30.75,14.32,47.92,1000.59,2033.00,2887.42,2739.98,2979.01,600.22,585.58,23.28,0000 0000 0000 0000 000000
2015-10-21 01:56:19,0.01,1.90,0.00,23.64,27.96,30.76,14.34,47.94,1000.54,2032.99,2887.00,2739.60,2978.96,600.20,585.48,23.33,0000 0000 0000 0000 000000
2015-10-21 02:01:20,0.03,1.90,0.00,23.67,27.97,30.74,14.24,47.86,1000.54,2032.99,2886.95,2739.06,2978.37,599.81,585.21,23.38,0000 0000 0000 0000 000000
2015-10-21 02:06:22,0.02,1.90,0.00,23.70,27.97,30.75,14.22,47.84,1000.55,2032.99,2886.33,2739.00,2978.02,599.91,585.21,23.43,0000 0000 0000 0000 000000
2015-10-21 02:11:23,0.00,1.90,0.00,23.72,27.97,30.74,14.27,47.78,1000.56,2032.98,2886.04,2739.00,2977.99,599.86,585.14,23.48,0000 0000 0000 0000 000000
2015-10-21 02:16:24,0.00,1.90,0.00,23.75,27.97,30.75,14.33,47.83,1000.52,2032.98,2886.00,2738.95,2977.97,600.09,585.27,23.53,0000 0000 0000 0000 000000
2015-10-21 02:21:25,0.07,1.90,0.00,23.77,27.97,30.74,14.22,47.78,1000.52,2032.99,2885.12,2738.35,2977.38,600.08,585.09,23.58,0000 0000 0000 0000 000000
2015-10-21 02:26:27,0.02,1.90,0.00,23.79,27.97,30.74,14.24,47.83,1000.52,2032.98,2884.02,2737.88,2976.86,600.11,585.23,23.63,0000 0000 0000 0000 000000
2015-10-21 02:31:28,0.02,1.90,0.00,23.81,27.97,30.75,14.30,47.85,1000.52,2032.94,2883.98,2737.28,2976.19,600.01,585.00,23.68,0000 0000 0000 0000 000000
2015-10-21 02:36:29,0.01,1.91,0.00,23.83,27.98,30.76,14.27,47.96,1000.51,2032.96,2883.79,2737.04,2976.02,599.80,584.72,23.73,0000 0000 0000 0000 000000
2015-10-21 02:41:30,0.04,1.91,0.00,23.84,27.98,30.75,14.17,47.92,1000.52,2032.97,2882.77,2736.86,2975.70,600.03,584.88,23.79,0000 0000 0000 0000 000000
2015-10-21 02:46:31,0.03,1.91,0.00,23.84,27.99,30.75,14.14,47.84,1000.54,2032.97,2882.02,2736.12,2975.02,599.70,584.65,23.84,0000 0000 0000 0000 000000
2015-10-21 02:51:32,0.01,1.91,0.00,23.85,28.00,30.75,14.15,47.89,1000.51,2032.98,2881.77,2736.00,2974.85,599.72,584.64,23.89,0000 0000 0000 0000 000000
2015-10-21 02:56:34,0.02,1.91,0.00,23.89,28.00,30.75,14.33,47.92,1000.51,2032.98,2881.05,2735.98,2974.13,600.20,585.06,23.94,0000 0000 0000 0000 000000
2015-10-21 03:01:35,0.02,1.91,0.00,23.92,28.00,30.77,14.26,47.90,1000.50,2032.94,2881.00,2735.51,2974.00,600.43,585.21,23.99,0000 0000 0000 0000 000000
2015-10-21 03:06:36,0.01,1.91,0.00,23.94,28.00,30.77,14.21,48.01,1000.50,2032.96,2880.93,2735.07,2973.92,600.04,584.84,24.04,0000 0000 0000 0000 000000
2015-10-21 03:11:38,0.03,1.92,0.00,23.96,28.00,30.77,14.18,47.98,1000.50,2032.95,2880.24,2734.99,2973.24,599.97,584.73,24.09,0000 0000 0000 0000 000000
2015-10-21 03:16:39,-0.00,1.92,0.00,23.98,28.00,30.77,14.21,47.98,1000.50,2032.91,2880.01,2734.98,2973.02,600.06,584.65,24.14,0000 0000 0000 0000 000000
2015-10-21 03:21:40,-0.00,1.92,0.00,24.02,28.02,30.78,14.22,47.89,1000.50,2032.81,2879.99,2734.77,2972.99,600.19,584.75,24.19,0000 0000 0000 0000 000000
2015-10-21 03:26:42,0.05,1.92,0.00,24.05,28.02,30.79,14.29,47.95,1000.51,2032.85,2879.56,2734.09,2972.44,600.36,584.90,24.24,0000 0000 0000 0000 000000
2015-10-21 03:31:43,0.01,1.92,0.00,24.07,28.02,30.80,14.25,47.98,1000.51,2032.84,2879.03,2734.00,2972.01,600.03,584.53,24.29,0000 0000 0000 0000 000000
2015-10-21 03:36:45,-0.02,1.92,0.00,24.11,28.02,30.77,14.25,48.04,1000.53,2032.58,2879.00,2733.89,2971.97,600.14,584.54,24.34,0000 0000 0000 0000 000000
2015-10-21 03:41:46,-0.01,1.92,0.00,24.13,28.03,30.79,14.17,47.98,1000.52,2032.20,2878.96,2733.20,2971.33,599.86,584.31,24.39,0000 0000 0000 0000 000000
2015-10-21 03:46:47,0.01,1.92,0.00,24.16,28.05,30.78,14.32,48.00,1000.51,2032.06,2878.34,2733.02,2971.01,600.13,584.41,24.44,0000 0000 0000 0000 000000
2015-10-21 03:51:48,0.00,1.92,0.00,24.18,28.05,30.79,14.26,47.93,1000.52,2032.03,2877.99,2733.00,2970.97,600.10,584.35,24.49,0000 0000 0000 0000 000000
2015-10-21 03:56:50,0.03,1.92,0.00,24.20,28.05,30.80,14.24,47.85,1000.56,2032.02,2877.60,2732.99,2970.38,599.95,584.31,24.54,0000 0000 0000 0000 000000
2015-10-21 04:01:51,0.01,1.92,0.00,24.22,28.05,30.82,14.19,47.88,1000.62,2032.03,2877.03,2732.78,2970.02,599.94,584.17,24.59,0000 0000 0000 0000 000000
2015-10-21 04:06:52,0.02,1.92,0.00,24.23,28.06,30.80,14.23,47.95,1000.53,2032.01,2876.87,2732.20,2969.98,600.16,584.33,24.64,0000 0000 0000 0000 000000
2015-10-21 04:11:53,0.03,1.92,0.00,24.25,28.07,30.82,14.24,47.94,1000.55,2032.00,2876.08,2732.00,2969.33,600.04,584.25,24.69,0000 0000 0000 0000 000000
2015-10-21 04:16:54,0.00,1.92,0.00,24.26,28.07,30.82,14.19,47.96,1000.63,2032.00,2875.97,2732.00,2969.01,599.70,583.86,24.74,0000 0000 0000 0000 000000
2015-10-21 04:21:55,0.03,1.92,0.00,24.27,28.08,30.85,14.21,47.85,1000.92,2032.00,2875.25,2731.89,2968.87,599.94,584.27,24.79,0000 0000 0000 0000 000000
2015-10-21 04:26:57,0.03,1.93,0.00,24.30,28.10,30.83,14.23,47.91,1000.99,2032.00,2874.92,2731.47,2968.16,599.83,584.17,24.84,0000 0000 0000 0000 000000
2015-10-21 04:31:58,0.03,1.93,0.00,24.29,28.10,30.85,14.18,47.94,1000.99,2032.00,2874.11,2731.03,2967.99,599.84,584.14,24.89,0000 0000 0000 0000 000000
2015-10-21 04:36:59,0.02,1.93,0.00,24.27,28.10,30.85,14.19,47.98,1000.99,2031.99,2873.58,2731.00,2967.46,600.12,584.39,24.94,0000 0000 0000 0000 000000
2015-10-21 04:42:01,0.03,1.93,0.00,24.28,28.11,30.84,14.21,47.85,1000.99,2031.99,2872.88,2730.68,2967.00,599.91,584.47,24.99,0000 0000 0000 0000 000000
2015-10-21 04:47:02,0.04,1.93,0.00,24.31,28.12,30.85,14.18,47.81,1000.99,2031.99,2871.99,2730.02,2966.16,599.87,584.25,25.04,0000 0000 0000 0000 000000
2015-10-21 04:52:03,0.06,1.94,0.00,24.33,28.12,30.85,14.15,47.94,1000.99,2031.99,2871.11,2729.54,2965.56,599.84,584.10,25.09,0000 0000 0000 0000 000000
2015-10-21 04:57:04,0.03,1.94,0.00,24.35,28.12,30.86,14.20,47.92,1000.98,2031.98,2870.20,2729.00,2964.81,600.09,584.31,25.14,0000 0000 0000 0000 000000
2015-10-21 05:02:06,0.06,1.94,0.00,24.35,28.13,30.87,14.19,47.98,1000.92,2031.98,2869.24,2728.42,2964.04,600.15,584.30,25.19,0000 0000 0000 0000 000000
2015-10-21 05:07:07,0.04,1.94,0.00,24.36,28.14,30.86,14.18,47.88,1000.98,2031.97,2868.34,2728.00,2963.30,599.89,584.15,25.24,0000 0000 0000 0000 000000
2015-10-21 05:12:09,0.05,1.94,0.00,24.37,28.15,30.88,14.25,47.94,1001.01,2031.98,2867.46,2727.48,2962.67,600.10,584.30,25.29,0000 0000 0000 0000 000000
2015-10-21 05:17:10,0.02,1.95,0.00,24.35,28.15,30.87,14.23,47.89,1001.39,2031.90,2866.45,2726.93,2961.78,600.04,584.50,25.34,0000 0000 0000 0000 000000
2015-10-21 05:22:12,0.04,1.95,0.00,24.32,28.15,30.87,14.25,47.92,1001.36,2031.78,2865.33,2726.17,2961.03,600.15,584.64,25.39,0000 0000 0000 0000 000000
2015-10-21 05:27:13,0.04,1.95,0.00,24.23,28.15,30.86,14.14,47.85,1001.29,2031.47,2863.92,2725.48,2959.99,599.80,584.46,25.44,0000 0000 0000 0000 000000
2015-10-21 05:32:15,0.14,1.96,0.00,24.17,28.15,30.89,14.26,47.92,1001.40,2031.31,2861.67,2724.18,2958.38,600.10,584.87,25.49,0000 0000 0000 0000 000000
2015-10-21 05:37:16,0.30,1.97,0.00,24.21,28.15,30.88,14.28,47.91,1001.48,2031.33,2856.50,2720.85,2954.82,600.09,584.85,25.54,0000 0000 0000 0000 000000
2015-10-21 05:42:17,0.53,1.99,0.00,24.19,28.15,30.88,14.18,47.90,1001.48,2031.23,2847.84,2715.13,2948.66,599.97,584.78,25.59,0000 0000 0000 0000 000000
2015-10-21 05:47:19,0.47,2.02,0.00,24.16,28.15,30.89,14.17,48.05,1001.48,2031.17,2838.41,2708.90,2942.05,599.29,584.17,25.64,0000 0000 0000 0000 000000
2015-10-21 05:52:20,0.26,2.04,0.00,24.12,28.15,30.89,14.32,48.02,1001.48,2031.04,2832.69,2705.16,2937.96,600.22,585.22,25.69,0000 0000 0000 0000 000000
2015-10-21 05:57:21,0.11,2.04,0.00,24.09,28.15,30.92,14.25,48.08,1001.48,2031.02,2829.98,2703.56,2936.05,599.78,584.67,25.74,0000 0000 0000 0000 000000
2015-10-21 06:02:22,0.18,2.05,0.00,24.13,28.17,30.93,14.24,48.02,1001.48,2031.00,2826.87,2701.75,2933.99,599.92,584.89,25.79,0000 0000 0000 0000 000000
2015-10-21 06:07:23,0.13,2.06,0.00,24.14,28.17,30.96,14.23,47.98,1001.49,2031.00,2823.47,2699.90,2931.91,600.01,584.91,25.84,0000 0000 0000 0000 000000
2015-10-21 06:12:24,0.09,2.06,0.00,24.17,28.17,31.00,14.25,48.06,1001.51,2031.00,2821.60,2698.86,2930.66,599.48,584.51,25.89,0000 0000 0000 0000 000000
2015-10-21 06:17:26,0.11,2.07,0.00,24.20,28.18,30.94,14.21,48.01,1001.52,2031.00,2819.61,2697.64,2929.24,599.79,584.48,25.94,0000 0000 0000 0000 000000
2015-10-21 06:22:27,0.05,2.07,0.00,24.23,28.20,30.95,14.20,48.03,1001.76,2031.00,2818.21,2696.84,2928.14,600.14,585.03,25.99,0000 0000 0000 0000 000000
2015-10-21 06:27:28,0.07,2.08,0.00,24.28,28.20,30.96,14.18,47.94,1001.97,2031.00,2816.99,2696.01,2927.39,599.98,584.90,26.04,0000 0000 0000 0000 000000
2015-10-21 06:32:30,0.08,2.08,0.00,24.32,28.20,30.97,14.17,48.01,1001.98,2031.00,2815.55,2695.09,2926.09,599.74,584.71,26.09,0000 0000 0000 0000 000000
2015-10-21 06:37:31,0.07,2.09,0.00,24.37,28.22,30.97,14.15,47.94,1001.98,2031.00,2814.04,2694.16,2925.07,599.80,584.55,26.14,0000 0000 0000 0000 000000
2015-10-21 06:42:32,0.07,2.09,0.00,24.39,28.22,30.98,14.19,47.98,1002.00,2031.00,2812.79,2693.51,2924.21,599.62,584.35,26.19,0000 0000 0000 0000 000000
2015-10-21 06:47:34,0.04,2.09,0.00,24.42,28.22,30.99,14.21,47.95,1002.07,2031.00,2811.89,2692.98,2923.49,599.70,584.47,26.24,0000 0000 0000 0000 000000
2015-10-21 06:52:35,0.04,2.10,0.00,24.39,28.22,31.02,14.24,48.02,1002.26,2031.00,2811.08,2692.48,2922.98,600.01,584.87,26.29,0000 0000 0000 0000 000000
2015-10-21 06:57:37,0.01,2.10,0.00,24.38,28.22,30.98,14.22,48.04,1002.35,2031.00,2811.00,2692.08,2922.67,599.93,584.87,26.34,0000 0000 0000 0000 000000
2015-10-21 07:02:38,0.01,2.10,0.00,24.37,28.22,30.97,14.26,48.13,1002.46,2031.00,2810.90,2692.03,2922.07,600.24,585.34,26.39,0000 0000 0000 0000 000000
2015-10-21 07:07:39,0.01,2.10,0.00,24.39,28.22,30.97,14.22,48.13,1002.47,2030.99,2810.21,2692.01,2922.00,599.78,584.82,26.44,0000 0000 0000 0000 000000
2015-10-21 07:12:40,0.00,2.10,0.00,24.38,28.22,30.98,14.26,48.17,1002.50,2030.97,2810.00,2692.00,2921.98,600.12,585.03,26.49,0000 0000 0000 0000 000000
2015-10-21 07:17:41,0.00,2.10,0.00,24.37,28.22,30.98,14.23,48.11,1002.79,2030.98,2809.97,2692.02,2921.96,599.62,584.90,26.54,0000 0000 0000 0000 000000
2015-10-21 07:22:43,0.01,2.10,0.00,24.37,28.22,30.99,14.31,48.10,1002.94,2030.98,2809.64,2692.02,2921.80,600.14,585.44,26.59,0000 0000 0000 0000 000000
2015-10-21 07:27:44,0.02,2.10,0.00,24.37,28.22,30.99,14.21,48.17,1002.96,2030.96,2809.03,2692.00,2921.13,599.99,585.37,26.64,0000 0000 0000 0000 000000
2015-10-21 07:32:45,0.00,2.10,0.00,24.38,28.22,30.98,14.18,48.08,1003.06,2030.93,2808.99,2692.00,2921.00,599.87,585.23,26.69,0000 0000 0000 0000 000000
2015-10-21 07:37:46,0.00,2.10,0.00,24.39,28.20,30.99,14.26,48.21,1003.31,2030.94,2808.89,2692.00,2921.00,600.13,585.57,26.75,0000 0000 0000 0000 000000
2015-10-21 07:42:47,0.01,2.10,0.00,24.36,28.20,31.00,14.30,48.24,1003.43,2030.98,2808.63,2692.00,2921.00,600.22,585.83,26.80,0000 0000 0000 0000 000000
2015-10-21 07:47:49,0.01,2.10,0.00,24.35,28.20,30.98,14.29,48.29,1003.43,2030.97,2808.09,2692.00,2920.99,599.83,585.46,26.85,0000 0000 0000 0000 000000
2015-10-21 07:52:50,-0.00,2.10,0.00,24.35,28.20,30.96,14.30,48.23,1003.44,2030.94,2808.00,2692.00,2920.85,600.11,585.71,26.90,0000 0000 0000 0000 000000
2015-10-21 07:57:51,0.01,2.10,0.00,24.36,28.20,30.97,14.21,48.14,1003.52,2030.93,2807.99,2691.99,2920.43,600.16,585.71,26.95,0000 0000 0000 0000 000000
2015-10-21 08:02:52,0.00,2.10,0.00,24.35,28.20,30.95,14.35,48.09,1003.85,2030.98,2807.98,2691.99,2920.34,600.36,586.26,27.00,0000 0000 0000 0000 000000
2015-10-21 08:07:54,0.00,2.10,0.00,24.35,28.19,30.95,14.26,47.92,1003.92,2030.97,2807.92,2691.99,2920.10,600.16,585.95,27.05,0000 0000 0000 0000 000000
2015-10-21 08:12:55,0.02,2.10,0.00,24.34,28.18,30.96,14.41,48.19,1003.94,2030.98,2807.30,2691.98,2920.01,600.31,586.23,27.10,0000 0000 0000 0000 000000
2015-10-21 08:17:56,0.00,2.10,0.00,24.35,28.17,30.94,14.28,47.81,1004.02,2030.99,2807.06,2691.98,2920.01,600.11,586.11,27.15,0000 0000 0000 0000 000000
2015-10-21 08:22:58,0.00,2.10,0.00,24.32,28.17,30.94,14.24,47.62,1004.23,2030.99,2807.01,2691.99,2920.00,599.91,586.08,27.20,0000 0000 0000 0000 000000
2015-10-21 08:27:59,0.00,2.10,0.00,24.33,28.17,30.94,14.26,47.67,1004.37,2030.99,2806.98,2691.97,2920.00,600.28,586.53,27.25,0000 0000 0000 0000 000000
2015-10-21 08:33:00,0.06,2.10,0.00,24.30,28.17,30.95,14.20,47.70,1004.38,2030.99,2806.42,2691.44,2919.59,599.69,585.93,27.30,0000 0000 0000 0000 000000
2015-10-21 08:38:02,0.01,2.11,0.00,24.29,28.17,30.95,14.22,47.77,1004.41,2030.99,2806.03,2691.01,2919.03,600.03,586.48,27.35,0000 0000 0000 0000 000000
2015-10-21 08:43:03,0.00,2.11,0.00,24.28,28.17,30.95,14.18,47.79,1004.43,2030.99,2805.99,2691.00,2918.99,599.49,585.88,27.40,0000 0000 0000 0000 000000
2015-10-21 08:48:04,0.04,2.11,0.00,24.27,28.16,30.94,14.32,47.80,1004.62,2030.99,2805.56,2690.68,2918.50,600.48,586.92,27.45,0000 0000 0000 0000 000000
2015-10-21 08:53:05,0.02,2.11,0.00,24.26,28.15,30.93,14.31,47.92,1004.53,2030.99,2805.02,2690.02,2918.00,600.18,586.45,27.50,0000 0000 0000 0000 000000
2015-10-21 08:58:07,0.07,2.11,0.00,24.25,28.15,30.92,14.29,47.85,1004.76,2031.00,2804.47,2689.41,2917.22,600.36,586.97,27.55,0000 0000 0000 0000 000000
2015-10-21 09:03:08,0.05,2.12,0.00,24.22,28.14,30.93,14.26,47.87,1004.90,2031.00,2803.95,2688.15,2916.04,600.24,587.02,27.60,0000 0000 0000 0000 000000
2015-10-21 09:08:10,0.02,2.12,0.00,24.20,28.12,30.93,14.21,47.80,1004.95,2031.00,2803.25,2688.00,2915.83,599.88,586.74,27.65,0000 0000 0000 0000 000000
2015-10-21 09:13:11,0.01,2.12,0.00,24.19,28.12,30.93,14.30,47.88,1005.30,2031.00,2803.02,2687.95,2915.14,599.88,587.12,27.70,0000 0000 0000 0000 000000
2015-10-21 09:18:12,0.01,2.12,0.00,24.16,28.12,30.92,14.26,47.62,1005.39,2031.01,2803.00,2687.78,2915.00,599.83,587.01,27.75,0000 0000 0000 0000 000000
2015-10-21 09:23:13,0.01,2.12,0.00,24.14,28.10,30.90,14.25,47.75,1005.46,2031.01,2803.00,2687.40,2915.00,599.77,587.00,27.80,0000 0000 0000 0000 000000
2015-10-21 09:28:15,0.01,2.12,0.00,24.12,28.10,30.90,14.28,47.76,1005.81,2031.02,2802.99,2687.10,2914.99,599.94,587.43,27.85,0000 0000 0000 0000 000000
2015-10-21 09:33:16,0.01,2.12,0.00,24.10,28.09,30.89,14.32,47.72,1005.87,2031.02,2802.72,2687.01,2914.73,600.03,587.51,27.90,0000 0000 0000 0000 000000
2015-10-21 09:38:17,0.01,2.12,0.00,24.08,28.07,30.88,14.20,47.64,1005.89,2031.03,2802.58,2687.00,2914.38,600.00,587.60,27.95,0000 0000 0000 0000 000000
2015-10-21 09:43:18,0.01,2.12,0.00,24.07,28.07,30.86,14.23,47.67,1005.94,2031.01,2802.22,2687.00,2914.07,600.01,587.68,28.00,0000 0000 0000 0000 000000
2015-10-21 09:48:20,0.00,2.12,0.00,24.06,28.06,30.90,14.33,47.86,1006.34,2031.03,2802.05,2687.00,2914.00,599.87,587.74,28.05,0000 0000 0000 0000 000000
2015-10-21 09:53:21,0.00,2.12,0.00,24.05,28.05,30.89,14.31,47.69,1006.40,2031.04,2802.06,2687.00,2914.01,600.21,588.19,28.10,0000 0000 0000 0000 000000
2015-10-21 09:58:22,0.00,2.12,0.00,24.02,28.05,30.88,14.32,47.72,1006.73,2031.03,2802.02,2687.00,2914.01,600.21,588.40,28.15,0000 0000 0000 0000 000000
2015-10-21 10:03:23,0.00,2.12,0.00,23.99,28.04,30.87,14.34,47.77,1006.85,2031.08,2802.04,2687.01,2914.00,599.82,588.19,28.20,0000 0000 0000 0000 000000
2015-10-21 10:08:24,0.01,2.12,0.00,23.97,28.02,30.84,14.28,47.74,1006.85,2031.16,2802.01,2687.01,2914.01,599.73,588.03,28.25,0000 0000 0000 0000 000000
2015-10-21 10:13:25,-0.00,2.12,0.00,23.97,28.02,30.84,14.37,47.89,1006.66,2031.09,2802.00,2687.01,2914.03,600.20,588.43,28.30,0000 0000 0000 0000 000000
2015-10-21 10:18:26,-0.00,2.12,0.00,23.95,28.02,30.84,14.38,47.94,1006.38,2031.12,2802.00,2687.03,2914.02,600.10,588.26,28.35,0000 0000 0000 0000 000000
2015-10-21 10:23:27,0.03,2.12,0.00,23.92,28.00,30.85,14.34,48.08,1006.36,2031.33,2801.96,2687.00,2914.00,600.09,588.33,28.40,0000 0000 0000 0000 000000
2015-10-21 10:28:29,0.05,2.13,0.00,23.88,28.00,30.84,14.30,48.13,1006.35,2031.34,2801.12,2686.65,2913.31,600.11,588.41,28.45,0000 0000 0000 0000 000000
2015-10-21 10:33:30,0.13,2.13,0.00,23.85,28.00,30.83,14.38,48.43,1006.09,2031.50,2799.99,2685.25,2911.88,599.97,588.25,28.50,0000 0000 0000 0000 000000
2015-10-21 10:38:31,0.15,2.14,0.00,23.81,27.99,30.81,14.31,48.43,1005.89,2031.66,2798.49,2683.43,2909.97,599.87,588.05,28.55,0000 0000 0000 0000 000000
2015-10-21 10:43:33,0.10,2.15,0.00,23.76,27.97,30.83,14.33,48.38,1005.87,2031.86,2797.22,2681.77,2908.34,600.26,588.49,28.60,0000 0000 0000 0000 000000
2015-10-21 10:48:34,0.11,2.15,0.00,23.72,27.97,30.82,14.31,48.67,1005.87,2031.89,2795.97,2680.14,2906.57,599.63,587.90,28.65,0000 0000 0000 0000 000000
2015-10-21 10:53:35,0.08,2.16,0.00,23.66,27.97,30.82,14.37,48.40,1005.96,2031.88,2794.91,2678.98,2905.46,599.82,588.31,28.70,0000 0000 0000 0000 000000
2015-10-21 10:58:37,0.11,2.16,0.00,23.64,27.95,30.81,14.39,48.38,1006.42,2031.91,2793.83,2677.38,2903.73,600.30,589.08,28.75,0000 0000 0000 0000 000000
2015-10-21 11:03:38,0.03,2.16,0.00,23.60,27.95,30.80,14.37,48.11,1006.99,2031.93,2793.05,2676.75,2902.99,599.96,589.16,28.80,0000 0000 0000 0000 000000
2015-10-21 11:08:40,0.01,2.17,0.00,23.51,27.95,30.82,14.43,48.05,1007.40,2031.94,2793.00,2676.42,2902.93,600.21,589.88,28.85,0000 0000 0000 0000 000000
2015-10-21 11:13:41,0.01,2.17,0.00,23.48,27.93,30.80,14.28,47.77,1007.83,2031.95,2792.99,2676.20,2902.55,599.71,589.69,28.90,0000 0000 0000 0000 000000
2015-10-21 11:18:42,0.01,2.17,0.00,23.41,27.92,30.82,14.34,47.92,1008.19,2031.95,2792.95,2676.04,2902.11,599.89,590.18,28.95,0000 0000 0000 0000 000000
2015-10-21 11:23:44,0.02,2.17,0.00,23.37,27.92,30.79,14.41,48.02,1008.31,2031.97,2792.40,2675.99,2901.97,599.93,590.30,29.00,0000 0000 0000 0000 000000
2015-10-21 11:28:45,0.05,2.17,0.00,23.35,27.92,30.79,14.40,47.94,1008.32,2031.96,2791.94,2675.22,2901.16,600.13,590.57,29.05,0000 0000 0000 0000 000000
2015-10-21 11:33:47,0.01,2.17,0.00,23.34,27.92,30.81,14.44,48.16,1008.32,2031.93,2791.15,2674.93,2900.85,599.99,590.46,29.10,0000 0000 0000 0000 000000
2015-10-21 11:38:48,0.05,2.17,0.00,23.33,27.91,30.81,14.46,48.10,1008.47,2031.94,2790.99,2674.13,2900.05,600.13,590.72,29.15,0000 0000 0000 0000 000000
2015-10-21 11:43:49,0.02,2.18,0.00,23.34,27.90,30.79,14.37,48.21,1008.40,2031.97,2790.37,2673.99,2899.92,599.90,590.41,29.20,0000 0000 0000 0000 000000
2015-10-21 11:48:50,0.04,2.18,0.00,23.30,27.90,30.81,14.47,48.32,1008.74,2031.96,2790.01,2673.54,2899.19,600.25,591.24,29.25,0000 0000 0000 0000 000000
2015-10-21 11:53:52,0.02,2.18,0.00,23.32,27.90,30.80,14.44,48.20,1008.80,2031.97,2789.64,2673.01,2898.81,600.19,590.96,29.30,0000 0000 0000 0000 000000
2015-10-21 11:58:53,0.04,2.18,0.00,23.31,27.90,30.79,14.39,48.23,1008.91,2031.98,2789.04,2672.63,2898.07,599.58,590.49,29.35,0000 0000 0000 0000 000000
2015-10-21 12:03:54,0.05,2.18,0.00,23.30,27.90,30.79,14.49,48.38,1008.86,2031.96,2788.56,2671.80,2897.45,600.20,591.09,29.40,0000 0000 0000 0000 000000
2015-10-21 12:08:56,0.04,2.19,0.00,23.29,27.90,30.79,14.44,48.21,1009.24,2031.97,2787.92,2671.02,2896.36,599.54,590.76,29.45,0000 0000 0000 0000 000000
2015-10-21 12:13:57,0.04,2.19,0.00,23.23,27.88,30.79,14.42,48.20,1009.32,2031.99,2787.17,2670.52,2896.00,599.87,591.17,29.50,0000 0000 0000 0000 000000
2015-10-21 12:18:58,0.02,2.19,0.00,23.21,27.87,30.80,14.44,48.24,1009.37,2031.99,2787.00,2670.02,2895.42,599.95,591.36,29.55,0000 0000 0000 0000 000000
2015-10-21 12:24:00,0.04,2.19,0.00,23.17,27.87,30.79,14.44,48.14,1009.77,2031.98,2786.51,2669.61,2894.96,600.22,591.76,29.60,0000 0000 0000 0000 000000
2015-10-21 12:29:01,0.03,2.19,0.00,23.07,27.87,30.77,14.43,48.08,1009.81,2031.98,2786.02,2669.02,2894.25,599.74,591.68,29.65,0000 0000 0000 0000 000000
2015-10-21 12:34:03,0.01,2.19,0.00,23.07,27.85,30.78,14.38,48.19,1010.11,2031.98,2785.86,2668.85,2893.98,599.53,591.53,29.70,0000 0000 0000 0000 000000
2015-10-21 12:39:04,0.05,2.20,0.00,23.05,27.85,30.77,14.50,48.25,1010.27,2031.98,2785.10,2668.14,2893.54,600.04,592.28,29.75,0000 0000 0000 0000 000000
2015-10-21 12:44:05,0.01,2.20,0.00,22.99,27.85,30.77,14.51,48.20,1010.27,2031.99,2784.99,2667.99,2893.00,600.10,592.41,29.80,0000 0000 0000 0000 000000
2015-10-21 12:49:07,0.04,2.20,0.00,22.92,27.83,30.76,14.42,48.24,1010.27,2031.99,2784.47,2667.68,2892.75,599.77,592.29,29.85,0000 0000 0000 0000 000000
2015-10-21 12:54:08,0.03,2.20,0.00,22.83,27.82,30.79,14.48,48.16,1010.30,2031.99,2784.01,2667.10,2892.08,599.71,592.32,29.90,0000 0000 0000 0000 000000